Theta_e
337 339 341 342 343 343 343 342 343 343 343 342 342 340 339 339 338 337 334 332 332 331 331 331 330 331 331 331 330 331 331 331 330 329 328 326 324 324 323 322 321 319 318 317 315 314 313 311 310 310 313 317
332 335 338 340 340 340 340 340 341 342 341 340 339 337 338 335 335 335 334 332 331 330 330 329 329 329 329 330 330 331 330 330 329 327 326 325 324 323 322 320 319 318 317 315 314 312 310 309 308 308 312 315
338 329 333 336 337 337 338 338 338 338 337 336 336 336 334 331 329 329 329 331 331 330 330 330 328 329 329 330 330 330 329 329 328 327 326 325 324 322 321 319 318 316 315 313 311 309 307 305 305 307 310 313
338 331 327 331 333 334 335 336 336 334 332 330 330 330 328 325 327 325 327 323 327 326 329 328 326 328 330 329 329 329 329 328 327 326 325 324 322 321 320 318 316 314 313 311 310 308 305 304 306 307 307 311
339 337 326 327 327 329 331 333 332 332 327 323 322 324 320 320 330 331 330 329 329 321 328 322 321 326 329 328 329 328 327 327 326 325 324 322 321 320 318 315 314 312 311 310 308 306 303 304 305 305 307 308
338 339 331 336 338 337 334 328 326 332 335 325 334 322 327 331 330 330 329 329 323 327 327 325 319 324 330 328 327 326 326 326 325 325 324 323 321 319 316 312 312 309 307 306 305 303 302 305 304 305 306 306
336 336 335 336 337 336 329 332 334 335 333 334 333 332 331 329 330 329 329 327 326 326 320 324 318 323 327 327 326 325 324 324 324 323 323 320 317 314 308 309 308 306 304 302 301 303 306 304 304 305 305 305
334 334 335 335 335 335 334 335 334 335 334 333 334 332 331 329 329 328 327 317 315 318 325 324 317 321 323 323 322 322 322 322 321 320 318 314 310 306 308 306 304 304 304 303 304 304 303 303 305 305 304 304
332 333 333 334 334 334 333 333 333 333 334 333 333 331 329 329 326 327 325 324 323 324 323 323 324 325 325 324 323 318 321 320 319 317 314 308 304 304 306 305 304 304 303 303 303 303 302 302 304 303 303 303
332 331 332 332 333 333 332 332 332 332 332 331 330 329 328 325 325 325 323 323 323 323 322 322 322 323 323 322 322 320 321 319 317 313 308 305 304 303 304 304 304 304 303 303 302 302 303 302 303 303 302 302
331 330 331 332 332 332 331 331 331 330 330 329 328 327 325 324 323 322 321 321 321 321 321 321 322 322 321 321 319 318 316 314 311 306 304 303 304 303 303 303 304 303 304 304 303 302 303 302 302 302 302 302
329 330 330 331 330 330 330 330 329 329 328 327 324 324 323 323 323 321 319 319 319 319 319 319 320 320 318 318 316 315 313 310 306 304 303 304 304 303 303 302 302 301 302 302 303 302 302 302 302 302 301 302
328 329 329 330 329 329 326 329 329 329 328 324 323 322 321 321 320 319 318 317 317 317 317 318 317 316 316 315 312 311 309 307 304 303 303 302 302 302 301 301 302 301 301 301 302 301 302 302 301 302 302 302
327 327 327 328 328 328 327 328 329 328 325 325 322 319 319 319 320 318 317 316 315 315 315 315 315 315 314 312 310 308 307 304 303 302 302 302 302 302 302 301 301 300 301 300 301 301 301 301 301 301 301 302
326 326 326 327 328 328 327 327 327 326 325 324 321 319 317 317 318 317 316 315 314 313 313 313 312 312 311 310 307 306 305 303 303 303 302 302 300 300 300 300 300 300 300 300 300 300 301 300 300 301 301 301
325 325 326 327 327 326 327 327 326 325 324 320 320 318 316 316 315 315 314 314 313 312 311 310 310 310 309 309 306 305 304 302 303 302 304 304 303 302 302 300 299 300 299 299 299 300 300 300 300 300 301 301
324 325 325 325 325 326 326 325 325 324 322 321 320 317 315 314 314 313 313 312 311 310 310 309 308 308 307 307 305 303 303 303 302 302 300 301 301 300 300 299 299 300 300 299 298 299 299 299 300 300 300 300
323 324 324 324 325 325 324 323 323 322 322 320 318 316 315 313 312 311 311 311 310 309 308 307 307 306 306 305 304 302 302 300 300 299 300 299 298 298 298 298 297 296 298 298 298 299 299 299 299 300 300 299
322 323 323 323 323 324 322 323 322 321 321 319 317 316 314 312 311 310 310 310 308 307 306 305 305 304 304 303 302 301 300 299 300 300 300 298 297 297 297 298 298 298 297 297 297 298 298 298 299 299 299 299
321 322 322 322 318 322 322 321 320 320 319 318 316 314 313 312 310 309 309 308 307 306 305 304 303 302 303 302 301 300 300 300 299 300 300 299 299 296 297 297 296 298 298 298 298 298 298 298 298 298 298 298
321 321 321 320 320 321 320 319 318 318 318 317 315 313 312 311 309 308 307 307 306 305 304 303 302 301 302 301 300 300 300 299 299 300 300 299 299 298 296 296 296 296 297 297 297 297 298 298 298 298 297 298
319 319 319 319 319 318 318 318 318 317 316 315 314 312 310 310 309 307 307 306 305 304 303 303 302 301 301 300 300 300 299 298 300 300 299 297 298 298 297 295 296 295 296 297 296 296 297 297 297 298 297 297
318 318 318 318 317 316 316 316 316 315 314 314 313 311 310 308 308 306 306 305 304 303 302 301 301 300 300 299 299 299 298 299 299 299 298 297 296 297 297 296 296 296 297 297 297 296 295 296 296 297 297 296
315 315 314 313 314 313 313 314 313 313 312 312 311 311 309 308 307 306 305 304 303 302 301 300 300 299 299 299 299 298 298 297 297 298 298 297 296 295 296 298 298 297 295 295 295 294 294 295 295 295 295 296
313 312 312 312 312 311 312 311 311 311 311 310 310 309 308 307 306 305 304 303 303 301 300 300 299 299 298 298 298 298 298 299 298 298 298 297 296 295 293 294 296 297 297 294 293 294 293 293 294 293 294 294
312 313 312 311 311 311 311 310 308 308 309 308 308 307 307 307 306 304 304 302 302 301 301 299 298 298 297 297 297 298 299 299 298 298 297 297 295 296 294 293 295 296 295 293 292 290 290 291 292 292 292 292
310 312 312 311 311 310 309 309 309 309 308 307 306 306 306 306 305 304 303 302 301 300 300 300 298 297 297 297 297 297 298 298 297 297 297 296 294 293 295 294 296 296 297 293 295 295 292 289 289 290 290 292
310 310 311 310 309 308 309 307 307 306 306 305 305 304 305 304 304 304 303 302 301 300 300 300 298 297 296 296 297 297 296 297 297 296 296 295 295 294 292 294 292 296 297 298 296 291 292 292 292 289 289 289
308 307 307 307 306 306 305 304 303 303 303 303 303 303 302 302 303 303 302 302 301 300 300 300 299 297 297 296 297 297 296 296 296 296 296 295 295 294 292 292 292 293 296 296 299 295 292 289 289 292 294 290
305 305 305 304 303 301 301 301 301 300 301 301 301 301 302 302 301 302 302 302 301 300 299 299 299 298 297 296 296 296 296 297 297 296 295 295 295 294 295 294 293 291 294 295 297 296 297 299 294 294 293 291
304 304 304 303 303 303 302 301 302 302 302 302 301 302 301 300 301 301 301 301 301 300 299 299 299 299 297 296 296 296 296 295 296 296 296 296 295 295 295 296 293 292 291 293 292 294 295 296 291 299 293 290
Wind_Speed
9 10 10 10 10 10 11 11 11 12 11 11 10 9 9 9 7 7 9 10 11 11 11 11 10 10 10 10 9 10 10 10 10 10 10 10 10 10 10 10 10 11 11 11 11 10 9 9 8 7 6 3
10 9 10 11 11 10 11 9 10 11 11 10 9 8 6 6 6 8 8 9 11 11 11 10 10 10 10 10 10 10 11 10 11 11 11 11 11 11 11 11 11 11 11 11 10 10 9 9 8 6 5 4
10 11 10 11 11 11 11 10 10 10 10 8 7 7 6 7 9 8 8 7 9 10 9 8 7 9 11 11 11 11 11 11 11 11 11 11 11 11 12 12 12 12 11 11 10 10 9 7 5 4 3 4
12 11 11 11 11 11 11 10 10 10 9 8 8 7 8 9 8 8 7 6 8 8 8 7 8 8 9 11 11 11 11 11 11 11 11 11 11 11 11 12 11 11 11 10 10 9 7 4 2 3 4 4
10 10 10 8 10 12 11 9 10 10 10 8 7 8 8 9 9 8 8 8 9 7 8 8 6 7 9 11 11 11 11 11 11 11 11 11 11 11 12 12 12 10 10 9 8 7 5 1 3 4 4 3
7 7 10 13 11 10 10 9 9 9 10 9 9 9 8 8 9 8 8 9 11 9 9 7 6 6 9 12 11 11 11 11 11 11 11 11 11 11 12 10 6 6 8 8 7 6 1 2 4 3 3 3
8 10 10 12 12 11 11 11 10 11 11 11 11 10 9 10 9 10 8 8 7 6 8 9 7 6 8 10 9 11 11 11 11 11 11 10 10 10 8 4 3 4 4 4 4 2 1 3 3 3 3 3
10 10 11 10 13 13 13 12 10 13 11 11 11 10 9 9 9 9 8 7 8 6 8 6 6 6 7 8 8 9 9 10 10 11 11 10 10 7 4 3 3 4 3 3 2 2 2 3 3 2 2 3
11 11 10 10 12 13 12 13 12 13 10 9 9 10 9 10 7 8 8 8 7 8 8 8 9 8 8 8 9 10 8 8 8 8 6 6 5 4 4 4 3 3 3 3 3 2 2 3 3 3 2 2
11 11 11 11 11 12 12 14 13 11 9 8 9 9 10 8 8 9 8 9 9 9 9 9 9 9 9 9 8 9 7 6 7 5 6 6 5 4 4 3 3 3 3 3 3 3 3 2 2 2 2 2
11 11 11 11 11 12 13 12 11 10 9 9 10 10 9 9 9 10 9 9 10 10 9 9 9 9 8 8 8 8 6 6 6 5 6 5 5 4 4 3 3 3 2 3 3 3 3 2 2 2 2 2
12 11 12 12 11 12 12 10 11 11 10 9 9 10 10 10 10 10 10 10 10 10 9 10 9 8 8 7 7 6 6 6 5 5 5 5 5 5 4 4 4 3 3 3 3 3 3 2 2 2 2 2
13 12 12 12 12 13 12 11 11 11 10 9 9 10 10 11 11 11 10 10 10 9 10 9 8 8 8 7 6 6 6 6 6 5 5 5 6 5 5 5 4 3 3 3 3 3 3 2 2 2 2 2
15 13 13 13 13 12 12 12 11 11 9 10 10 10 11 11 11 11 11 11 10 10 11 9 9 8 8 7 6 7 6 6 6 6 6 5 5 5 5 4 4 4 3 3 3 2 3 2 3 2 2 2
14 13 13 13 12 12 12 12 11 10 10 10 10 10 11 11 12 11 11 10 11 10 10 9 9 9 8 8 7 7 6 6 6 6 6 6 6 5 5 4 4 3 4 3 3 2 2 2 2 2 2 2
13 13 13 13 11 12 12 12 11 11 10 10 10 10 11 11 11 11 10 11 10 11 10 10 10 9 9 8 7 7 6 7 5 5 5 5 4 5 5 5 4 3 4 4 3 2 2 2 2 3 2 2
14 12 12 12 13 12 11 11 11 11 11 11 10 9 11 11 12 11 11 10 11 10 9 9 9 9 8 8 8 7 7 7 5 5 5 4 4 4 4 5 4 3 3 3 3 3 2 2 2 2 3 3
12 14 12 12 11 12 11 11 11 12 11 10 10 10 11 11 12 11 10 10 10 10 9 9 9 9 8 7 8 7 7 7 6 6 6 6 5 5 5 5 5 5 4 3 3 3 2 2 2 3 3 2
15 14 12 12 12 12 11 12 11 11 10 10 10 10 10 12 11 12 11 10 10 10 9 9 9 9 8 7 8 7 7 7 7 6 7 7 7 6 5 5 5 5 4 4 4 3 3 3 2 2 3 3
15 14 12 11 12 11 12 11 11 11 11 10 10 10 10 12 11 11 11 10 10 10 10 9 9 9 8 9 8 8 8 7 8 7 7 7 7 8 6 6 6 4 5 4 4 3 2 3 3 3 3 3
13 12 12 12 11 12 11 11 11 10 10 10 10 10 10 11 11 12 11 12 11 10 10 9 8 8 9 9 9 8 8 8 7 8 7 6 6 6 7 7 7 5 5 4 4 3 3 3 3 3 3 4
11 11 10 9 9 10 10 12 10 10 10 11 10 10 10 11 11 12 12 12 11 10 9 9 9 8 9 9 8 8 8 8 7 7 7 7 6 6 7 7 8 7 5 4 4 3 3 3 3 3 3 3
10 10 9 8 8 9 10 9 9 9 9 10 10 10 11 11 11 11 12 12 11 11 9 9 9 8 10 9 8 8 8 7 7 7 7 8 7 5 5 6 7 7 6 5 4 4 3 2 2 2 2 3
9 9 9 10 9 9 10 10 9 9 9 9 10 10 10 10 11 11 11 13 12 12 10 10 9 9 9 9 9 9 9 8 9 10 10 9 10 9 4 2 5 7 7 6 6 5 3 3 2 2 2 2
10 11 10 10 11 11 9 10 10 9 10 9 9 9 10 10 10 11 11 12 12 12 11 10 8 9 9 9 9 9 10 10 10 9 9 8 8 10 9 6 5 7 8 8 6 4 4 3 2 2 2 3
10 10 10 10 11 10 9 9 10 10 9 10 8 9 10 10 10 10 11 11 11 11 11 11 9 9 10 10 10 9 8 8 8 9 9 8 8 7 9 7 8 9 10 7 8 8 5 3 3 3 2 3
9 9 9 9 6 8 7 7 8 8 8 8 9 9 10 10 10 11 10 10 11 10 11 11 10 10 10 11 10 9 9 9 10 10 11 11 10 9 7 6 7 10 11 7 7 6 6 5 5 4 4 4
7 7 7 7 3 4 6 5 6 6 5 6 8 9 9 9 10 11 10 11 11 9 10 11 11 10 10 11 11 11 11 11 11 10 10 11 10 10 10 7 9 9 8 4 11 7 6 5 5 3 8 7
7 5 5 5 2 1 4 2 4 6 8 7 7 8 8 9 9 10 10 10 12 11 11 11 10 11 11 11 11 11 10 11 12 12 12 13 11 13 12 11 9 10 8 8 5 3 6 3 3 6 4 9
7 7 8 7 8 8 8 9 9 10 10 9 10 11 7 8 9 10 10 10 12 12 11 11 11 10 10 11 10 11 10 10 9 11 12 13 13 14 13 11 10 11 9 8 7 6 4 2 2 4 7 8
5 6 7 9 9 9 9 9 8 7 7 8 8 8 10 9 10 12 12 11 11 12 12 12 11 11 11 11 10 10 10 10 12 11 12 11 12 12 12 11 11 13 12 7 7 5 5 3 2 2 9 7
Wind_Direction
204 206 203 205 215 210 217 212 199 203 212 208 215 224 217 213 198 166 182 190 199 198 199 199 197 191 187 181 176 166 154 149 145 141 134 130 127 123 117 112 107 100 93 87 82 76 69 58 49 27 343 83
211 208 208 205 211 217 219 219 211 209 201 207 219 204 206 192 159 156 166 188 197 199 198 196 192 187 184 179 171 161 156 152 147 141 137 134 131 125 119 114 109 103 97 91 84 76 70 64 52 35 7 70
203 208 207 210 210 210 211 218 219 209 192 195 186 185 185 143 138 144 157 180 195 198 192 189 181 187 180 176 169 163 159 153 146 142 139 135 130 125 120 116 112 108 104 100 95 88 83 76 57 26 59 63
205 199 207 209 205 203 207 213 210 192 180 175 178 172 147 139 135 143 160 173 194 198 188 172 190 182 181 176 169 164 158 151 146 144 140 136 130 124 119 112 107 104 103 101 98 99 97 93 178 94 80 71
204 197 189 203 204 200 199 199 194 183 169 161 162 151 142 141 171 181 192 179 202 174 189 167 182 183 185 177 167 161 157 153 149 146 142 138 132 126 117 106 97 94 97 95 93 91 88 155 87 74 72 67
196 199 189 208 203 201 193 191 187 179 185 174 182 149 149 180 189 197 194 193 200 188 184 163 173 194 184 175 166 161 157 153 152 147 142 136 128 120 114 114 115 98 80 78 85 78 14 76 75 75 75 72
204 205 202 206 206 204 197 194 188 195 187 186 191 178 182 197 200 197 189 194 181 196 169 173 172 186 181 169 157 162 157 157 153 148 141 133 125 119 117 123 116 120 125 107 115 155 99 78 72 78 80 90
205 206 206 206 207 209 206 202 190 202 189 191 186 172 184 191 190 181 191 103 111 116 164 152 176 178 153 148 153 154 155 154 151 143 131 123 122 128 153 137 131 132 139 142 137 102 99 96 97 93 97 90
205 204 205 205 207 208 205 207 199 202 185 184 175 173 186 190 169 177 191 174 175 187 184 181 182 178 178 174 173 164 167 165 148 148 145 138 157 160 154 151 145 147 142 140 137 112 99 105 102 99 90 93
204 201 204 202 202 202 206 206 202 196 185 181 177 177 184 168 168 181 188 180 183 189 187 183 184 184 185 179 172 179 169 162 162 158 156 159 166 161 158 152 149 149 145 143 137 123 109 112 117 107 98 102
200 202 205 205 201 199 205 204 194 191 190 187 178 177 170 176 182 187 190 182 185 187 185 185 183 181 179 176 173 182 175 163 163 166 160 164 161 154 144 137 133 126 116 117 121 116 115 110 118 120 117 116
204 204 203 206 200 202 202 196 195 195 193 180 176 178 180 184 186 188 191 187 186 187 187 188 184 182 178 179 177 178 176 165 169 169 164 158 149 148 146 140 138 133 129 119 118 119 117 119 121 118 117 110
208 204 203 203 202 202 199 199 199 196 184 179 182 181 178 182 187 191 192 188 187 185 188 184 178 177 180 179 175 175 176 174 172 172 165 160 160 158 153 149 145 138 133 138 127 128 127 132 119 123 129 121
210 204 201 203 201 201 196 201 200 190 185 188 183 183 183 184 190 192 191 187 187 185 186 182 176 179 180 180 175 179 181 179 178 173 167 164 159 156 152 152 141 148 137 129 129 137 139 138 139 134 136 141
207 204 204 202 200 199 199 198 195 190 192 190 189 187 182 185 192 191 191 187 186 185 184 180 179 185 178 181 179 182 181 175 181 171 172 167 162 159 156 146 144 155 143 141 135 129 146 142 141 135 135 143
203 203 203 200 200 202 202 196 196 195 194 192 191 185 179 188 191 192 191 187 183 186 183 183 184 184 180 186 177 182 177 171 174 168 149 142 138 140 145 140 146 148 152 149 143 143 146 158 152 147 144 148
206 205 200 199 201 201 197 194 195 198 196 194 191 184 183 190 191 192 192 188 183 183 183 183 181 184 185 183 176 176 167 159 158 153 148 139 141 141 139 142 138 135 150 148 146 158 156 161 155 146 155 147
205 206 203 202 201 202 194 196 198 201 199 193 190 185 186 189 191 191 195 187 183 185 185 182 185 185 184 182 168 163 159 168 170 167 158 152 158 155 159 155 153 162 165 154 151 158 157 173 159 155 153 147
208 205 204 199 200 200 193 198 202 202 199 194 192 187 189 191 191 191 193 186 180 186 188 184 186 187 184 171 165 167 174 174 172 168 165 162 164 159 163 158 157 171 167 160 159 155 165 161 157 161 138 134
206 205 204 202 201 202 192 197 202 201 200 197 193 191 190 189 189 189 191 184 184 187 192 189 188 185 176 162 170 175 172 175 172 169 166 171 166 159 165 161 164 175 164 159 148 146 152 143 163 151 146 145
206 206 206 205 203 203 194 200 201 201 199 197 196 192 191 185 187 188 189 188 188 192 190 190 187 181 170 168 177 175 172 178 175 167 164 164 171 169 161 168 165 170 164 145 132 128 132 145 165 160 157 159
207 209 210 208 206 204 205 205 205 203 200 201 197 192 194 182 185 189 190 189 188 195 190 190 188 176 166 172 178 173 173 181 171 170 171 159 164 164 164 173 172 170 153 132 133 126 132 152 168 153 155 141
203 208 212 214 211 209 212 209 209 207 206 204 198 198 192 180 186 189 189 187 186 193 189 190 188 172 169 175 178 173 175 171 166 167 175 162 156 158 170 176 175 165 139 125 115 118 118 120 125 145 135 151
196 200 205 206 208 218 215 212 210 211 213 204 205 199 191 186 188 189 188 187 187 192 190 190 187 175 168 179 178 176 178 175 179 176 168 167 159 160 150 162 152 139 135 120 108 105 97 89 94 120 154 167
194 197 202 209 214 219 211 212 211 212 212 212 209 200 194 191 191 191 188 189 186 193 191 191 180 170 172 180 182 186 189 181 174 171 168 158 160 162 165 174 163 156 144 135 123 113 116 114 109 120 172 170
198 202 202 201 209 209 209 204 205 214 210 211 206 201 196 199 195 194 191 190 191 193 190 187 176 175 176 182 188 192 187 170 158 158 164 157 158 176 175 171 175 167 161 175 169 158 154 152 155 162 186 181
202 202 205 205 211 203 211 216 219 218 219 208 207 202 199 199 197 198 196 190 192 194 192 189 180 183 179 184 183 183 182 175 172 175 172 172 170 164 182 174 180 183 200 183 173 160 145 176 174 175 206 195
204 201 194 190 189 182 211 226 207 214 217 211 210 213 205 206 205 198 198 193 192 195 195 192 187 180 182 187 187 187 183 180 181 174 175 177 179 167 165 180 188 204 211 224 152 172 217 168 202 184 211 188
197 175 174 183 158 160 210 250 229 220 230 223 219 220 212 213 205 203 201 196 195 198 198 197 192 189 189 187 189 190 187 183 186 180 180 176 175 180 181 179 183 200 209 230 250 212 142 137 216 235 131 162
203 209 205 194 195 208 214 223 216 217 215 207 209 211 213 208 204 203 205 203 197 198 199 200 197 192 189 190 189 194 194 184 176 180 180 183 184 187 194 179 172 187 208 224 237 260 309 331 233 180 144 164
196 207 210 210 210 213 213 220 224 218 211 212 208 202 204 203 198 204 206 206 202 200 201 201 198 196 194 193 194 193 193 188 186 183 185 182 192 193 188 184 185 184 189 199 247 237 241 271 234 277 144 199